New Roads False River Regiona, LA

7:17 PM CDT on October 14, 2019 (GMT -0500)
False River

Weather History for KHZR - August, 2019

Change the Weather History Date:

Thursday, August 29, 2019

  Actual Average (WUND) Record (WUND)
Temperature  
Mean Temperature 80 °F -  
Max Temperature 89 °F - - (-1)
Min Temperature 71 °F - - (-1)
Cooling Degree Days 15    
Growing Degree Days 30 (Base 50)    
Moisture  
Dew Point 73 °F    
Average Humidity 78    
Maximum Humidity 100    
Minimum Humidity 55    
Precipitation  
Precipitation 0.00 in - - ()
Sea Level Pressure  
Sea Level Pressure 30.03 in    
Wind  
Wind Speed 2 mph ()    
Max Wind Speed 9 mph    
Max Gust Speed -    
Visibility 10.0 miles    
Events      
Averages and records for this station are not official NWS values.
T = Trace of Precipitation, MM = Missing Value Source: Averaged Metar Reports

Daily Weather History Graph

Daily Weather History Graph

Search for Another Location

Airport or City:

Astronomy

Aug. 29, 2019 Rise Set
Actual Time 6:40 AM CDT 7:32 PM CDT
Civil Twilight 6:15 AM CDT 7:57 PM CDT
Nautical Twilight 5:46 AM CDT 8:26 PM CDT
Astronomical Twilight 5:16 AM CDT 8:56 PM CDT
Moon 5:34 AM CDT (8/29) 7:23 PM CDT (8/29)
Length of Visible Light 13h 41m
Length of Day
12h 52m
Waning Crescent, 1% of the Moon is Illuminated
Aug 29
Waning Crescent
Aug 30
New
Sep 5
First Quarter
Sep 13
Full
Sep 21
Last Quarter

Hourly Weather History & Observations

Time (CDT) Temp. Heat Index Dew Point Humidity Pressure Visibility Wind Dir Wind Speed Gust Speed Precip Events Conditions
12:16 AM 73.4 °F - 73.4 °F 100% 30.01 in 10.0 mi Calm Calm - N/A   Clear
2:16 AM 73.4 °F - 73.4 °F 100% 30.01 in 10.0 mi Calm Calm - N/A   Clear
2:38 AM 73.4 °F - 73.4 °F 100% 30.01 in 10.0 mi Calm Calm - N/A   Clear
2:56 AM 73.4 °F - 71.6 °F 94% 30.01 in 10.0 mi NNE 3.5 mph - N/A   Clear
3:16 AM 73.4 °F - 71.6 °F 94% 30.01 in 10.0 mi North 3.5 mph - N/A   Clear
3:36 AM 73.4 °F - 71.6 °F 94% 30.01 in 10.0 mi Calm Calm - N/A   Clear
3:56 AM 73.4 °F - 71.6 °F 94% 30.01 in 10.0 mi Calm Calm - N/A   Clear
4:16 AM 73.4 °F - 71.6 °F 94% 30.01 in 10.0 mi Calm Calm - N/A   Clear
4:56 AM 71.6 °F - 71.6 °F 100% 30.02 in 10.0 mi Calm Calm - N/A   Clear
5:16 AM 71.6 °F - 71.6 °F 100% 30.03 in 10.0 mi Calm Calm - N/A   Clear
5:36 AM 71.6 °F - 71.6 °F 100% 30.03 in 10.0 mi Calm Calm - N/A   Clear
6:16 AM 71.6 °F - 71.6 °F 100% 30.04 in 10.0 mi Calm Calm - N/A   Clear
7:16 AM 73.4 °F - 71.6 °F 94% 30.06 in 10.0 mi Calm Calm - N/A   Clear
7:36 AM 73.4 °F - 73.4 °F 100% 30.07 in 10.0 mi Calm Calm - N/A   Clear
8:16 AM 75.2 °F - 73.4 °F 94% 30.07 in 10.0 mi NNE 4.6 mph - N/A   Mostly Cloudy
8:36 AM 77.0 °F - 73.4 °F 89% 30.07 in 10.0 mi NE 3.5 mph - N/A   Mostly Cloudy
8:56 AM 78.8 °F - 73.4 °F 83% 30.07 in 10.0 mi ENE 3.5 mph - N/A   Mostly Cloudy
9:17 AM 80.6 °F 85.4 °F 73.4 °F 79% 30.08 in 10.0 mi East 4.6 mph - N/A   Scattered Clouds
9:36 AM 82.4 °F 88.2 °F 73.4 °F 74% 30.08 in 10.0 mi East 4.6 mph - N/A   Clear
9:56 AM 82.4 °F 87.2 °F 71.6 °F 70% 30.08 in 10.0 mi East 4.6 mph - N/A   Clear
10:16 AM 84.2 °F 89.6 °F 71.6 °F 66% 30.08 in 10.0 mi East 4.6 mph - N/A   Clear
10:36 AM 84.2 °F 90.9 °F 73.4 °F 70% 30.08 in 10.0 mi East 4.6 mph - N/A   Clear
10:58 AM 84.2 °F 90.9 °F 73.4 °F 70% 30.08 in 10.0 mi Calm Calm - N/A   Clear
11:16 AM 84.2 °F 89.6 °F 71.6 °F 66% 30.08 in 10.0 mi Calm Calm - N/A   Clear
11:36 AM 86.0 °F 93.4 °F 73.4 °F 66% 30.07 in 10.0 mi SE 3.5 mph - N/A   Scattered Clouds
11:56 AM 87.8 °F 95.6 °F 73.4 °F 62% 30.07 in 10.0 mi Calm Calm - N/A   Clear
12:17 PM 87.8 °F 95.6 °F 73.4 °F 62% 30.06 in 10.0 mi NE 3.5 mph - N/A   Scattered Clouds
12:36 PM 87.8 °F 95.6 °F 73.4 °F 62% 30.06 in 10.0 mi NNW 3.5 mph - N/A   Scattered Clouds
12:58 PM 87.8 °F 95.6 °F 73.4 °F 62% 30.05 in 10.0 mi ENE 3.5 mph - N/A   Clear
1:56 PM 89.6 °F 99.8 °F 75.2 °F 62% 30.03 in 10.0 mi NE 3.5 mph - N/A   Scattered Clouds
2:18 PM 87.8 °F 93.8 °F 71.6 °F 58% 30.03 in 10.0 mi Calm Calm - N/A   Scattered Clouds
2:36 PM 89.6 °F 99.8 °F 75.2 °F 62% 30.02 in 10.0 mi NNE 5.8 mph - N/A   Scattered Clouds
2:56 PM 89.6 °F 98.2 °F 73.4 °F 59% 30.01 in 10.0 mi Calm Calm - N/A   Clear
3:16 PM 89.6 °F 98.2 °F 73.4 °F 59% 30.01 in 10.0 mi North 5.8 mph - N/A   Scattered Clouds
3:56 PM 89.6 °F 98.2 °F 73.4 °F 59% 30.00 in 10.0 mi Calm Calm - N/A   Scattered Clouds
4:36 PM 89.6 °F 98.2 °F 73.4 °F 59% 29.99 in 10.0 mi NNE 3.5 mph - N/A   Clear
4:56 PM 89.6 °F 98.2 °F 73.4 °F 59% 29.99 in 10.0 mi NE 9.2 mph - N/A   Scattered Clouds
5:16 PM 89.6 °F 98.2 °F 73.4 °F 59% 29.99 in 10.0 mi NE 4.6 mph - N/A   Scattered Clouds
5:56 PM 89.6 °F 98.2 °F 73.4 °F 59% 29.99 in 10.0 mi NE 5.8 mph - N/A   Clear
6:16 PM 89.6 °F 96.2 °F 71.6 °F 55% 30.00 in 10.0 mi NE 4.6 mph - N/A   Clear
6:36 PM 87.8 °F 93.8 °F 71.6 °F 58% 30.00 in 10.0 mi NE 3.5 mph - N/A   Clear
6:56 PM 86.0 °F 93.4 °F 73.4 °F 66% 30.00 in 10.0 mi NE 3.5 mph - N/A   Clear
7:16 PM 84.2 °F 90.9 °F 73.4 °F 70% 30.00 in 10.0 mi NE 3.5 mph - N/A   Clear
7:36 PM 84.2 °F 90.9 °F 73.4 °F 70% 30.00 in 10.0 mi East 3.5 mph - N/A   Clear
7:56 PM 82.4 °F 89.5 °F 75.2 °F 79% 30.00 in 10.0 mi Calm Calm - N/A   Clear
8:36 PM 80.6 °F 86.2 °F 75.2 °F 84% 30.01 in 10.0 mi Calm Calm - N/A   Clear
8:56 PM 80.6 °F 85.4 °F 73.4 °F 79% 30.01 in 10.0 mi ENE 3.5 mph - N/A   Clear
9:16 PM 80.6 °F 85.4 °F 73.4 °F 79% 30.02 in 10.0 mi NE 3.5 mph - N/A   Clear
9:36 PM 78.8 °F - 73.4 °F 83% 30.02 in 10.0 mi Calm Calm - N/A   Clear
9:56 PM 78.8 °F - 73.4 °F 83% 30.03 in 10.0 mi Calm Calm - N/A   Clear
10:16 PM 78.8 °F - 73.4 °F 83% 30.02 in 10.0 mi Calm Calm - N/A   Clear
10:36 PM 78.8 °F - 73.4 °F 83% 30.03 in 10.0 mi ESE 3.5 mph - N/A   Clear
10:58 PM 77.0 °F - 73.4 °F 89% 30.04 in 10.0 mi Calm Calm - N/A   Clear
11:16 PM 75.2 °F - 73.4 °F 94% 30.04 in 10.0 mi Calm Calm - N/A   Clear
11:36 PM 75.2 °F - 73.4 °F 94% 30.04 in 10.0 mi Calm Calm - N/A   Clear
11:56 PM 75.2 °F - 73.4 °F 94% 30.04 in 10.0 mi Calm Calm - N/A   Clear